COSMOS 249 DEB, 3755

Orbit data source: Space-Track

COSMOS 249 DEB, 3755 is space debris in LEO originally from a launch on Sun, 20 Oct 1968 UTC launched from the Tyuratam Missile And Space Complex (TTMTR). Debris objects in space refer to the collection of defunct objects orbiting the Earth. Examples of debris include non-operational satellites, rocket bodies, and fragments generated from explosions, collisions, or faulty payload assembly.

Loading next visibility...
Identifier
3755, 1968-091AT
Orbit
LEO
Country
Flag of CISCIS
Related business
Manufacturer
Unknown
Mission
Spacecraft
Bus & Motor
Unknown
Mass
Unknown
Launch date (UTC)
1968-10-20 (57 years ago)
Launch vehicle
Unknown
Launch site
Tyuratam Missile And Space Complex (TTMTR)
Object type
Payload
Rocket body
Debris
Shape & HBR
Unknown shape, 0.1 m
Radar Cross Section
Small (<0.1 m²)

Expand to show TLE details & history
Last TLE update: 19 hours ago

TLE from 19 hours ago
0 COSMOS 249 DEB
1 03755U 68091AT  25286.36601169  .00000250  00000-0  38910-3 0  9990
2 03755  62.2459  20.8367 0779800  64.5624 303.3956 12.81069848611828
Epoch: 2025-10-13T08:47Z
TLE epoch observation values (Epoch: 2025-10-13T08:47:03.410Z)
Latitude
-0.00003°
Longitude
-133.09735°
Altitude
1,042.429 km
Speed
7.471 km/s
True Right ascension
01h 23m 20s
True Declination
0° 00' 00"
Sunlit
Object was in full shadow at epoch
Visualization orbit readout
Latitude
Unknown
Longitude
Unknown
Altitude
Unknown
Speed
Unknown
Apparent Right ascension
Unknown
Apparent Declination
Unknown
Sunlit
N/A
Visualization observer readout
Local Sidereal Time
22:24:52
Azimuth
Unknown
Elevation
Unknown
Doppler factor
Unknown
Orbital elements
Apogee altitude
1,937.732 km
Perigee altitude
734.608 km
Semi-major axis
7,714.307 km
Eccentricity
0.07798
Inclination
62.2459°
RAAN
20.8367°
Arg. of periapsis
64.5624°
True anomaly
295.53807°
Mean anomaly
303.3956°
Eccentric anomaly
299.50719°
Mean motion
3.2033 °/min
Orbital period
112.38 mins
BSTAR
0.0003891
Loading maneuver chart data...
Computing Atmospheric mass density...

Documentation

Showing up to 5 results
|